Location: 476 Grange Obs.
(45.1420°N, 7.1420°E)
Time: 23:47:28
(UTC+02:00)

ISS - Visible Passes

Search period start: 23 September 2018 00:00
Search period end: 03 October 2018 00:00
Orbit: 403 x 408 km, 51.6° (Epoch: 23 September)

Date Brightness Start Highest point End Pass type
(mag) Time Alt. Az. Time Alt. Az. Time Alt. Az.
23 Sep -4.0 21:08:56 10° SW 21:12:14 80° SSE 21:12:21 78° ESE visible
24 Sep -3.4 20:17:14 10° SW 20:20:23 45° SE 20:22:54 15° ENE visible
24 Sep -1.5 21:53:51 10° W 21:55:36 25° WNW 21:55:36 25° WNW visible
25 Sep -3.2 21:01:43 10° WSW 21:04:57 53° NNW 21:05:59 36° NNE visible
26 Sep -3.8 20:09:42 10° WSW 20:13:00 84° NNW 20:16:15 10° ENE visible
26 Sep -1.5 21:46:55 10° WNW 21:48:56 24° NW 21:48:56 24° NW visible
27 Sep -2.4 20:54:41 10° W 20:57:45 34° NNW 20:59:06 24° NNE visible
28 Sep -2.9 20:02:30 10° W 20:05:41 46° NNW 20:08:54 10° NE visible
28 Sep -1.5 21:39:54 10° WNW 21:41:52 22° NNW 21:41:52 22° NNW visible
29 Sep -2.1 20:47:41 10° WNW 20:50:35 27° N 20:51:54 20° NNE visible
30 Sep -2.3 19:55:26 10° W 19:58:26 31° NNW 20:01:27 10° NE visible
30 Sep -1.6 21:32:41 10° NW 21:34:34 23° NNW 21:34:34 23° NNW visible
01 Oct -2.1 20:40:34 10° WNW 20:43:23 25° N 20:44:32 20° NE visible
02 Oct -2.1 19:48:21 10° WNW 19:51:12 26° N 19:54:02 10° NE visible
02 Oct -1.8 21:25:16 10° NW 21:27:09 25° NNW 21:27:09 25° NNW visible
